This is the latest recevied weather packets stored in our database for station/object KSRR. If no packets are shown the sender has not sent any weather packets the latest 10 day(s).
| Time | Temp. | Humidity | Pressure | Rain* | Wind** | Luminosity | Snow |
|---|---|---|---|---|---|---|---|
| 1777836223 | 15° C | 44% | 1023.7 hPa | - | - | - | - |
| 1777835624 | 15° C | 44% | 1023.7 hPa | - | - | - | - |
| 1777835022 | 15° C | 44% | 1023.7 hPa | - | - | - | - |
| 1777834425 | 13.89° C | 47% | 1024 hPa | - | - | - | - |
| 1777833822 | 13.89° C | 47% | 1024 hPa | - | - | - | - |
| 1777833227 | 13.89° C | 44% | 1024.4 hPa | - | - | - | - |
| 1777832623 | 13.89° C | 44% | 1024.4 hPa | - | - | - | - |
| 1777832024 | 13.89° C | 44% | 1024.7 hPa | - | - | - | - |
| 1777831422 | 13.89° C | 44% | 1024.7 hPa | - | - | - | - |
| 1777830824 | 13.89° C | 44% | 1024.7 hPa | - | - | - | - |
| 1777830221 | 13.89° C | 44% | 1024.7 hPa | - | - | - | - |
| 1777829622 | 12.78° C | 43% | 1025.1 hPa | - | - | - | - |
| 1777829020 | 12.78° C | 43% | 1025.1 hPa | - | - | - | - |
| 1777828421 | 12.78° C | 47% | 1025.4 hPa | - | - | - | - |
| 1777827823 | 12.78° C | 47% | 1025.4 hPa | - | - | - | - |
| 1777827227 | 12.78° C | 47% | 1025.1 hPa | - | - | - | - |
| 1777826623 | 12.78° C | 47% | 1025.1 hPa | - | - | - | - |
| 1777826027 | 12.78° C | 50% | 1025.1 hPa | - | - | - | - |
| 1777825426 | 12.78° C | 50% | 1025.1 hPa | - | - | - | - |
| 1777824825 | 11.67° C | 50% | 1025.4 hPa | - | - | - | - |
| 1777824228 | 11.67° C | 50% | 1025.4 hPa | - | - | - | - |
| 1777823626 | 11.67° C | 50% | 1025.4 hPa | - | - | - | - |
| 1777823026 | 11.67° C | 50% | 1025.4 hPa | - | - | - | - |
| 1777822426 | 10° C | 57% | 1025.1 hPa | - | - | - | - |
| 1777821827 | 10° C | 57% | 1025.1 hPa | - | - | - | - |
* Rain since midnight (hover to see other rain measurements)
** Current wind speed in m/s (hover to see current wind gust speed)